Location: Hertford
(51.8000°N, 0.0667°W)
Time: 12:13:01
(UTC+00:00)

Okean 2 Rocket - Pass Details

Date: 18 September 2020
Orbit: 616 x 642 km, 82.5° (Epoch: 23 October)

Event Time Altitude Azimuth Distance (km) Brightness Sun altitude
Rises 19:41:24 0° 187° (S) 2,934 6.4 -15.0°
Reaches altitude 10° 19:43:39 10° 187° (S) 2,027 5.5 -15.3°
Maximum altitude 19:48:09 86° 99° (E) 646 3.0 -16.0°
Drops below altitude 10° 19:52:40 10° 11° (NNE) 2,029 5.9 -16.6°
Sets 19:54:55 0° 12° (NNE) 2,938 6.7 -16.9°
